Time,TemperatureF,DewpointF,PressureIn,WindDirection,WindDirectionDegrees,WindSpeedMPH,WindSpeedGustMPH,Humidity,HourlyPrecipIn,Conditions,Clouds,dailyrainin,SoftwareType,DateUTC
2013-01-25 00:11:00,12.1,3.0,30.29,NE,43,6.0,11.0,68,0.00,,,0.00,weatherlink.com 1.10,2013-01-25 06:11:00,
2013-01-25 00:26:00,12.3,4.0,30.28,NNE,18,5.0,11.0,68,0.00,,,0.00,weatherlink.com 1.10,2013-01-25 06:26:00,
2013-01-25 00:41:00,12.5,4.0,30.28,NNW,344,5.0,13.0,68,0.00,,,0.00,weatherlink.com 1.10,2013-01-25 06:41:00,
2013-01-25 00:56:00,12.9,4.0,30.26,NNE,19,13.0,20.0,68,0.00,,,0.00,weatherlink.com 1.10,2013-01-25 06:56:00,
2013-01-25 01:11:00,13.3,5.0,30.26,NNE,20,10.0,20.0,69,0.00,,,0.00,weatherlink.com 1.10,2013-01-25 07:11:00,
2013-01-25 01:26:00,13.2,6.0,30.25,NNE,33,12.0,23.0,74,0.00,,,0.00,weatherlink.com 1.10,2013-01-25 07:26:00,
2013-01-25 01:41:00,13.1,7.0,30.24,NNE,28,11.0,20.0,76,0.00,,,0.00,weatherlink.com 1.10,2013-01-25 07:41:00,
2013-01-25 01:57:00,13.0,7.0,30.23,NNE,16,12.0,18.0,77,0.00,,,0.00,weatherlink.com 1.10,2013-01-25 07:57:00,
2013-01-25 02:12:00,13.0,7.0,30.23,NNW,330,7.0,18.0,78,0.00,,,0.00,weatherlink.com 1.10,2013-01-25 08:12:00,
2013-01-25 02:27:00,13.0,8.0,30.21,North,6,8.0,18.0,79,0.00,,,0.00,weatherlink.com 1.10,2013-01-25 08:27:00,
2013-01-25 02:41:00,13.2,8.0,30.21,NNE,27,11.0,16.0,79,0.00,,,0.00,weatherlink.com 1.10,2013-01-25 08:41:00,
2013-01-25 02:56:00,13.2,8.0,30.20,NNE,18,13.0,18.0,79,0.00,,,0.00,weatherlink.com 1.10,2013-01-25 08:56:00,
2013-01-25 03:12:00,13.4,8.0,30.19,NE,37,10.0,17.0,79,0.00,,,0.00,weatherlink.com 1.10,2013-01-25 09:12:00,
2013-01-25 03:27:00,13.6,8.0,30.17,NNE,20,10.0,17.0,78,0.00,,,0.00,weatherlink.com 1.10,2013-01-25 09:27:00,
2013-01-25 03:42:00,13.7,8.0,30.16,NE,48,13.0,21.0,78,0.00,,,0.00,weatherlink.com 1.10,2013-01-25 09:42:00,
2013-01-25 03:57:00,13.9,8.0,30.15,NE,43,12.0,20.0,78,0.00,,,0.00,weatherlink.com 1.10,2013-01-25 09:57:00,
2013-01-25 04:12:00,14.0,8.0,30.14,NE,44,7.0,16.0,77,0.00,,,0.00,weatherlink.com 1.10,2013-01-25 10:12:00,
2013-01-25 04:27:00,14.2,8.0,30.12,NE,53,10.0,16.0,77,0.00,,,0.00,weatherlink.com 1.10,2013-01-25 10:27:00,
2013-01-25 04:42:00,14.5,9.0,30.11,North,11,12.0,14.0,77,0.00,,,0.00,weatherlink.com 1.10,2013-01-25 10:42:00,
2013-01-25 04:57:00,14.9,9.0,30.11,NE,34,7.0,12.0,76,0.00,,,0.00,weatherlink.com 1.10,2013-01-25 10:57:00,
2013-01-25 05:12:00,15.2,9.0,30.10,NNE,32,10.0,18.0,75,0.00,,,0.00,weatherlink.com 1.10,2013-01-25 11:12:00,
2013-01-25 05:27:00,15.3,9.0,30.10,ENE,67,12.0,18.0,75,0.00,,,0.00,weatherlink.com 1.10,2013-01-25 11:27:00,
2013-01-25 05:42:00,15.2,9.0,30.09,NE,51,13.0,17.0,76,0.00,,,0.00,weatherlink.com 1.10,2013-01-25 11:42:00,
2013-01-25 05:58:00,15.3,9.0,30.08,NE,49,13.0,18.0,77,0.00,,,0.00,weatherlink.com 1.10,2013-01-25 11:58:00,
2013-01-25 06:13:00,15.5,10.0,30.08,ENE,72,16.0,21.0,78,0.00,,,0.00,weatherlink.com 1.10,2013-01-25 12:13:00,
2013-01-25 06:28:00,15.6,10.0,30.07,ENE,61,11.0,14.0,78,0.00,,,0.00,weatherlink.com 1.10,2013-01-25 12:28:00,
2013-01-25 06:43:00,15.6,10.0,30.08,ENE,77,8.0,14.0,79,0.00,,,0.00,weatherlink.com 1.10,2013-01-25 12:43:00,
2013-01-25 06:58:00,15.8,11.0,30.08,ENE,63,8.0,13.0,80,0.00,,,0.00,weatherlink.com 1.10,2013-01-25 12:58:00,
2013-01-25 07:13:00,15.9,11.0,30.08,ENE,67,7.0,13.0,80,0.00,,,0.00,weatherlink.com 1.10,2013-01-25 13:13:00,
2013-01-25 07:28:00,16.3,11.0,30.08,East,96,9.0,15.0,80,0.00,,,0.00,weatherlink.com 1.10,2013-01-25 13:28:00,
2013-01-25 07:43:00,16.8,11.0,30.07,East,79,18.0,21.0,79,0.00,,,0.00,weatherlink.com 1.10,2013-01-25 13:43:00,
2013-01-25 07:58:00,16.2,11.0,30.07,East,80,12.0,17.0,80,0.00,,,0.00,weatherlink.com 1.10,2013-01-25 13:58:00,
2013-01-25 08:13:00,16.0,11.0,30.07,East,90,11.0,12.0,80,0.00,,,0.00,weatherlink.com 1.10,2013-01-25 14:13:00,
2013-01-25 08:28:00,16.5,11.0,30.08,East,79,7.0,22.0,79,0.00,,,0.00,weatherlink.com 1.10,2013-01-25 14:28:00,
2013-01-25 08:43:00,16.4,10.0,30.09,SE,127,21.0,23.0,76,0.00,,,0.00,weatherlink.com 1.10,2013-01-25 14:43:00,
2013-01-25 08:58:00,16.1,10.0,30.09,East,101,15.0,19.0,76,0.00,,,0.00,weatherlink.com 1.10,2013-01-25 14:58:00,
2013-01-25 09:13:00,15.5,10.0,30.11,East,93,6.0,21.0,78,0.00,,,0.00,weatherlink.com 1.10,2013-01-25 15:13:00,
2013-01-25 09:28:00,15.5,8.0,30.11,East,100,14.0,21.0,71,0.00,,,0.00,weatherlink.com 1.10,2013-01-25 15:28:00,
2013-01-25 09:44:00,14.7,8.0,30.11,ESE,107,12.0,23.0,73,0.00,,,0.00,weatherlink.com 1.10,2013-01-25 15:44:00,
2013-01-25 09:59:00,13.7,6.0,30.12,SE,133,6.0,20.0,71,0.00,,,0.00,weatherlink.com 1.10,2013-01-25 15:59:00,
2013-01-25 10:14:00,13.3,5.0,30.13,ESE,121,11.0,22.0,70,0.00,,,0.00,weatherlink.com 1.10,2013-01-25 16:14:00,
2013-01-25 10:29:00,13.1,5.0,30.14,East,101,7.0,19.0,70,0.00,,,0.00,weatherlink.com 1.10,2013-01-25 16:29:00,
2013-01-25 10:44:00,12.8,5.0,30.14,ESE,111,13.0,21.0,70,0.00,,,0.00,weatherlink.com 1.10,2013-01-25 16:44:00,
2013-01-25 10:59:00,12.3,4.0,30.15,SSE,153,15.0,21.0,70,0.00,,,0.00,weatherlink.com 1.10,2013-01-25 16:59:00,
2013-01-25 11:14:00,11.6,3.0,30.15,SE,143,14.0,22.0,69,0.00,,,0.00,weatherlink.com 1.10,2013-01-25 17:14:00,
2013-01-25 11:29:00,12.1,4.0,30.16,East,87,14.0,18.0,69,0.00,,,0.00,weatherlink.com 1.10,2013-01-25 17:29:00,
2013-01-25 11:45:00,11.8,3.0,30.16,SE,134,12.0,19.0,68,0.00,,,0.00,weatherlink.com 1.10,2013-01-25 17:45:00,
2013-01-25 11:59:00,11.8,3.0,30.16,SE,127,16.0,20.0,69,0.00,,,0.00,weatherlink.com 1.10,2013-01-25 17:59:00,
2013-01-25 12:15:00,12.1,3.0,30.17,ESE,122,10.0,19.0,68,0.00,,,0.00,weatherlink.com 1.10,2013-01-25 18:15:00,
2013-01-25 12:30:00,12.0,3.0,30.18,SE,138,9.0,19.0,68,0.00,,,0.00,weatherlink.com 1.10,2013-01-25 18:30:00,
2013-01-25 12:44:00,11.9,3.0,30.18,SE,128,11.0,21.0,68,0.00,,,0.00,weatherlink.com 1.10,2013-01-25 18:44:00,
2013-01-25 13:00:00,12.1,3.0,30.18,SE,128,15.0,18.0,66,0.00,,,0.00,weatherlink.com 1.10,2013-01-25 19:00:00,
2013-01-25 13:15:00,12.4,3.0,30.18,ESE,117,11.0,19.0,67,0.00,,,0.00,weatherlink.com 1.10,2013-01-25 19:15:00,
2013-01-25 13:30:00,12.1,2.0,30.19,SE,127,6.0,20.0,65,0.00,,,0.00,weatherlink.com 1.10,2013-01-25 19:30:00,
2013-01-25 13:45:00,12.3,3.0,30.19,SE,128,5.0,18.0,65,0.00,,,0.00,weatherlink.com 1.10,2013-01-25 19:45:00,
2013-01-25 14:00:00,12.4,3.0,30.20,SSE,149,8.0,20.0,65,0.00,,,0.00,weatherlink.com 1.10,2013-01-25 20:00:00,
2013-01-25 14:15:00,12.5,3.0,30.21,ESE,117,5.0,18.0,66,0.00,,,0.00,weatherlink.com 1.10,2013-01-25 20:15:00,
2013-01-25 14:30:00,12.4,3.0,30.22,ESE,120,10.0,17.0,65,0.00,,,0.00,weatherlink.com 1.10,2013-01-25 20:30:00,
2013-01-25 15:00:00,12.3,3.0,30.23,SSE,150,7.0,17.0,65,0.00,,,0.00,weatherlink.com 1.10,2013-01-25 21:00:00,
2013-01-25 15:16:00,11.9,2.0,30.23,SE,127,5.0,21.0,65,0.00,,,0.00,weatherlink.com 1.10,2013-01-25 21:16:00,
2013-01-25 15:30:00,12.0,2.0,30.24,ESE,115,6.0,16.0,65,0.00,,,0.00,weatherlink.com 1.10,2013-01-25 21:30:00,
2013-01-25 15:45:00,11.9,3.0,30.25,SSE,147,8.0,18.0,66,0.00,,,0.00,weatherlink.com 1.10,2013-01-25 21:45:00,
2013-01-25 16:00:00,11.8,2.0,30.25,SE,138,9.0,14.0,65,0.00,,,0.00,weatherlink.com 1.10,2013-01-25 22:00:00,
2013-01-25 16:15:00,11.5,2.0,30.26,ESE,106,13.0,14.0,66,0.00,,,0.00,weatherlink.com 1.10,2013-01-25 22:15:00,
2013-01-25 16:31:00,11.2,2.0,30.27,SE,138,7.0,15.0,66,0.00,,,0.00,weatherlink.com 1.10,2013-01-25 22:31:00,
2013-01-25 16:46:00,10.9,2.0,30.27,SE,127,5.0,12.0,67,0.00,,,0.00,weatherlink.com 1.10,2013-01-25 22:46:00,
2013-01-25 17:01:00,10.2,1.0,30.28,SE,136,6.0,13.0,67,0.00,,,0.00,weatherlink.com 1.10,2013-01-25 23:01:00,
2013-01-25 17:16:00,9.6,1.0,30.28,SSE,148,9.0,13.0,69,0.00,,,0.00,weatherlink.com 1.10,2013-01-25 23:16:00,
2013-01-25 17:31:00,9.2,1.0,30.29,ESE,122,8.0,12.0,70,0.00,,,0.00,weatherlink.com 1.10,2013-01-25 23:31:00,
2013-01-25 17:46:00,8.5,1.0,30.29,SE,127,10.0,17.0,70,0.00,,,0.00,weatherlink.com 1.10,2013-01-25 23:46:00,
2013-01-25 18:01:00,8.1,0.0,30.29,ESE,113,2.0,9.0,70,0.00,,,0.00,weatherlink.com 1.10,2013-01-26 00:01:00,
2013-01-25 18:16:00,7.9,0.0,30.30,SE,143,10.0,11.0,71,0.00,,,0.00,weatherlink.com 1.10,2013-01-26 00:16:00,
2013-01-25 18:31:00,7.6,0.0,30.31,SSE,158,5.0,12.0,71,0.00,,,0.00,weatherlink.com 1.10,2013-01-26 00:31:00,
2013-01-25 18:47:00,7.2,0.0,30.32,ESE,118,6.0,12.0,72,0.00,,,0.00,weatherlink.com 1.10,2013-01-26 00:47:00,
2013-01-25 19:01:00,6.7,-1.0,30.33,SE,127,6.0,10.0,72,0.00,,,0.00,weatherlink.com 1.10,2013-01-26 01:01:00,
2013-01-25 19:16:00,6.4,-1.0,30.34,SE,131,2.0,8.0,73,0.00,,,0.00,weatherlink.com 1.10,2013-01-26 01:16:00,
2013-01-25 19:31:00,5.9,-1.0,30.35,ESE,122,5.0,10.0,73,0.00,,,0.00,weatherlink.com 1.10,2013-01-26 01:31:00,
2013-01-25 19:47:00,5.5,-1.0,30.35,SE,135,3.0,8.0,73,0.00,,,0.00,weatherlink.com 1.10,2013-01-26 01:47:00,
2013-01-25 20:02:00,5.2,-2.0,30.36,ESE,120,6.0,9.0,73,0.00,,,0.00,weatherlink.com 1.10,2013-01-26 02:02:00,
2013-01-25 20:17:00,5.2,-2.0,30.37,East,95,5.0,11.0,73,0.00,,,0.00,weatherlink.com 1.10,2013-01-26 02:17:00,
2013-01-25 20:32:00,4.6,-2.0,30.38,ESE,108,4.0,9.0,74,0.00,,,0.00,weatherlink.com 1.10,2013-01-26 02:32:00,
2013-01-25 20:47:00,4.3,-3.0,30.39,ESE,117,5.0,11.0,73,0.00,,,0.00,weatherlink.com 1.10,2013-01-26 02:47:00,
2013-01-25 21:02:00,4.1,-3.0,30.39,ESE,110,3.0,8.0,74,0.00,,,0.00,weatherlink.com 1.10,2013-01-26 03:02:00,
2013-01-25 21:17:00,3.7,-3.0,30.39,ESE,115,2.0,8.0,74,0.00,,,0.00,weatherlink.com 1.10,2013-01-26 03:17:00,
2013-01-25 21:32:00,3.3,-3.0,30.39,ESE,110,5.0,8.0,74,0.00,,,0.00,weatherlink.com 1.10,2013-01-26 03:32:00,
2013-01-25 21:47:00,3.0,-3.0,30.39,East,98,2.0,7.0,75,0.00,,,0.00,weatherlink.com 1.10,2013-01-26 03:47:00,
2013-01-25 22:03:00,2.7,-4.0,30.40,East,84,5.0,7.0,75,0.00,,,0.00,weatherlink.com 1.10,2013-01-26 04:03:00,
2013-01-25 22:17:00,2.4,-4.0,30.41,ESE,108,4.0,6.0,75,0.00,,,0.00,weatherlink.com 1.10,2013-01-26 04:17:00,
2013-01-25 22:32:00,2.3,-4.0,30.42,ESE,121,5.0,6.0,75,0.00,,,0.00,weatherlink.com 1.10,2013-01-26 04:32:00,
2013-01-25 22:47:00,2.1,-4.0,30.42,ESE,107,3.0,5.0,76,0.00,,,0.00,weatherlink.com 1.10,2013-01-26 04:47:00,
2013-01-25 23:18:00,1.6,-4.0,30.43,SE,134,5.0,6.0,76,0.00,,,0.00,weatherlink.com 1.10,2013-01-26 05:18:00,
2013-01-25 23:33:00,1.4,-4.0,30.44,ESE,107,3.0,6.0,77,0.00,,,0.00,weatherlink.com 1.10,2013-01-26 05:33:00,
2013-01-25 23:48:00,1.4,-4.0,30.44,SSE,160,2.0,7.0,77,0.00,,,0.00,weatherlink.com 1.10,2013-01-26 05:48:00,